Find Starlink 31786

NORAD ID: 59771 Int'l Des: 2024-091 Owner: SPXS Country: US Constellation: starlink operational
LEOCIRCULAR

現在のビュー

3D地球を読み込み中...

About Starlink 31786

Starlink 31786 (NORAD 59771) is a starlink constellation satellite (v2 mini) launched May 14, 2024 by SPXS of US. It operates in LEO, CIRCULAR orbit with a mass of 730.00 kg.

次回通過

Passes for default location (London). Set your location on the main map for personalized predictions.

高度履歴

Loading altitude history...

軌道要素

1 59771U 24091U 26265.09132066 -.00000968 00000-0 -17535-4 0 9993
2 59771 53.1602 193.9609 0001115 92.2875 267.8255 15.34392568133082
Epoch: Sep 22, 2026 • Age: 11 hours

現在のステータス

高度 464.8 km
遠地点 / 近地点 N/A
速度 7.63 km/s
衛星直下点 -6.07°S, 10.64°W
打ち上げ日 May 14, 2024
運用期間 2.3 years
タイプ internet

技術仕様

分類 Payload
質量 730.00 kg
乾燥質量 700.00 kg
長さ 0.30 m
スパン 29.00 m
形状 ? Box + pan
製造者 SPXS
バスタイプ Starlink V2M
フェーズステータス In Orbit
所有者/国 SPXS/US

Most Searched